This is the latest recevied weather packets stored in our database for station/object K2ATL. If no packets are shown the sender has not sent any weather packets the latest 10 day(s).
| Time | Temp. | Humidity | Pressure | Rain* | Wind** | Luminosity | Snow |
|---|---|---|---|---|---|---|---|
| 1787640143 | 21.11° C | 58% | 1103.5 hPa | 0 mm | - | 0 W/m² | - |
| 1787639837 | 21.11° C | 59% | 1103.4 hPa | 0 mm | - | 0 W/m² | - |
| 1787639534 | 21.11° C | 59% | 1103.5 hPa | 0 mm | - | 0 W/m² | - |
| 1787639234 | 21.11° C | 61% | 1103.5 hPa | 0 mm | - | 0 W/m² | - |
| 1787638933 | 21.67° C | 59% | 1103.6 hPa | 0 mm | - | 0 W/m² | - |
| 1787638629 | 21.67° C | 58% | 1103.5 hPa | 0 mm | - | 0 W/m² | - |
| 1787638325 | 21.67° C | 60% | 1103.5 hPa | 0 mm | - | 0 W/m² | - |
| 1787638025 | 21.11° C | 63% | 1103.4 hPa | 0 mm | - | 0 W/m² | - |
| 1787637721 | 21.67° C | 63% | 1103.4 hPa | 0 mm | - | 0 W/m² | - |
| 1787637420 | 21.67° C | 60% | 1103.6 hPa | 0 mm | - | 0 W/m² | - |
| 1787637115 | 21.67° C | 60% | 1103.6 hPa | 0 mm | - | 0 W/m² | - |
| 1787636814 | 21.67° C | 61% | 1103.6 hPa | 0 mm | - | 0 W/m² | - |
| 1787636509 | 21.67° C | 60% | 1103.7 hPa | 0 mm | - | 0 W/m² | - |
| 1787636204 | 21.67° C | 58% | 1103.5 hPa | 0 mm | - | 0 W/m² | - |
| 1787635899 | 21.67° C | 60% | 1103.7 hPa | 0 mm | - | 0 W/m² | - |
| 1787635594 | 21.11° C | 62% | 1103.8 hPa | 0 mm | - | 0 W/m² | - |
| 1787635291 | 21.11° C | 64% | 1104 hPa | 0 mm | - | 0 W/m² | - |
| 1787634991 | 21.11° C | 65% | 1103.9 hPa | 0 mm | - | 0 W/m² | - |
| 1787634686 | 21.67° C | 62% | 1103.9 hPa | 0 mm | - | 0 W/m² | - |
| 1787634381 | 21.67° C | 62% | 1103.9 hPa | 0 mm | - | 0 W/m² | - |
| 1787634077 | 21.67° C | 61% | 1103.9 hPa | 0 mm | - | 0 W/m² | - |
| 1787633773 | 21.67° C | 61% | 1103.8 hPa | 0 mm | - | 0 W/m² | - |
| 1787633469 | 21.67° C | 61% | 1103.9 hPa | 0 mm | - | 0 W/m² | - |
| 1787633164 | 21.67° C | 62% | 1103.7 hPa | 0 mm | - | 0 W/m² | - |
| 1787632861 | 21.11° C | 63% | 1103.9 hPa | 0 mm | - | 0 W/m² | - |
* Rain latest hour (hover to see other rain measurements)
** Current wind speed in m/s (hover to see current wind gust speed)